BAW529 LIRN-EGLL

Flight info

Callsign BAW529
Flight time 2h 30m
Altitude 36000
Route ALAXI7J ALAXI DCT INSOX DCT AMTEL/N0444F380 DCT CERVI DCT IBODI DCT GOTED DCT TRO DCT CLM DCT KOPOR DCT ABNUR DCT DIMAL DCT ALESO ALESO1H
Aircraft A320/M-SDE3FGIJ1KRWXY/SB1

Departure

Time 2026-05-07 18:08
Airport Naples International Airport (LIRN)

Arrival

Time 2026-05-07 20:38
Airport London Heathrow Airport (EGLL)
Time Latitude Longitude Altitude Speed Heading
2026-05-07 16:56 40.87764 14.27847 300 ft 0 kts 263°
2026-05-07 17:55 40.87764 14.27854 302 ft 2 kts 263°
2026-05-07 17:55 40.87766 14.27873 300 ft 2 kts 258°
2026-05-07 17:55 40.87770 14.27892 302 ft 2 kts 248°
2026-05-07 17:56 40.87776 14.27909 300 ft 2 kts 227°
2026-05-07 17:56 40.87787 14.27922 299 ft 2 kts 200°
2026-05-07 17:56 40.87801 14.27926 298 ft 2 kts 172°
2026-05-07 17:56 40.87815 14.27923 299 ft 2 kts 169°
2026-05-07 17:57 40.87830 14.27919 301 ft 2 kts 156°
2026-05-07 17:57 40.87838 14.27913 300 ft 2 kts 141°
2026-05-07 17:57 40.87853 14.27897 300 ft 2 kts 141°
2026-05-07 17:57 40.87864 14.27885 301 ft 2 kts 141°
2026-05-07 17:58 40.87866 14.27884 301 ft 0 kts 141°
2026-05-07 17:59 40.87863 14.27887 301 ft 2 kts 140°
2026-05-07 18:00 40.87853 14.27905 301 ft 4 kts 119°
2026-05-07 18:00 40.87855 14.27950 301 ft 7 kts 64°
2026-05-07 18:00 40.87891 14.28009 295 ft 10 kts 51°
2026-05-07 18:00 40.87941 14.28092 295 ft 13 kts 51°
2026-05-07 18:01 40.87959 14.28197 291 ft 13 kts 96°
2026-05-07 18:01 40.87947 14.28319 289 ft 12 kts 97°
2026-05-07 18:01 40.87937 14.28421 288 ft 11 kts 92°
2026-05-07 18:01 40.87978 14.28503 286 ft 11 kts 39°
2026-05-07 18:02 40.88050 14.28465 286 ft 7 kts 277°
2026-05-07 18:02 40.88056 14.28399 287 ft 7 kts 276°
2026-05-07 18:02 40.88061 14.28336 287 ft 7 kts 277°
2026-05-07 18:03 40.88067 14.28277 288 ft 6 kts 277°
2026-05-07 18:03 40.88060 14.28223 291 ft 6 kts 240°
2026-05-07 18:03 40.88040 14.28179 293 ft 5 kts 238°
2026-05-07 18:03 40.88027 14.28153 291 ft 1 kts 237°
2026-05-07 18:04 40.88025 14.28149 291 ft 1 kts 237°
2026-05-07 18:04 40.88021 14.28140 291 ft 1 kts 237°
2026-05-07 18:04 40.88015 14.28129 293 ft 2 kts 236°
2026-05-07 18:04 40.88011 14.28112 292 ft 2 kts 261°
2026-05-07 18:05 40.88023 14.28085 292 ft 6 kts 314°
2026-05-07 18:05 40.88066 14.28047 296 ft 9 kts 327°
2026-05-07 18:05 40.88098 14.28011 292 ft 5 kts 355°
2026-05-07 18:05 40.88111 14.28030 294 ft 0 kts 59°
2026-05-07 18:07 40.88117 14.28043 291 ft 16 kts 59°
2026-05-07 18:07 40.88324 14.28484 281 ft 93 kts 58°
2026-05-07 18:07 40.88773 14.29435 261 ft 148 kts 58°
2026-05-07 18:07 40.89350 14.30665 649 ft 156 kts 57°
2026-05-07 18:08 40.89916 14.31882 1257 ft 155 kts 57°
2026-05-07 18:08 40.90497 14.33117 1697 ft 164 kts 57°
2026-05-07 18:08 40.91143 14.34483 2030 ft 185 kts 57°
2026-05-07 18:08 40.91834 14.35946 2650 ft 188 kts 57°
2026-05-07 18:09 40.92527 14.37416 3325 ft 189 kts 58°
2026-05-07 18:09 40.93223 14.38892 3985 ft 190 kts 58°
2026-05-07 18:09 40.93926 14.40387 4651 ft 192 kts 58°
2026-05-07 18:09 40.94627 14.41885 5204 ft 201 kts 59°
2026-05-07 18:10 40.95405 14.43552 5575 ft 223 kts 59°
2026-05-07 18:10 40.96242 14.45341 6260 ft 232 kts 59°
2026-05-07 18:10 40.97104 14.47178 7033 ft 237 kts 60°
2026-05-07 18:10 40.97993 14.49043 7829 ft 243 kts 56°
2026-05-07 18:11 40.99285 14.50514 8587 ft 253 kts 26°
2026-05-07 18:11 41.00418 14.50927 9098 ft 260 kts
2026-05-07 18:11 41.02758 14.50128 10093 ft 269 kts 323°
2026-05-07 18:11 41.04003 14.48295 10832 ft 270 kts 301°
2026-05-07 18:12 41.05031 14.46206 11650 ft 271 kts 301°
2026-05-07 18:12 41.06052 14.44101 12461 ft 272 kts 300°
2026-05-07 18:12 41.07080 14.41977 13274 ft 274 kts 299°
2026-05-07 18:12 41.08117 14.39841 14034 ft 277 kts 299°
2026-05-07 18:13 41.09163 14.37689 14768 ft 278 kts 299°
2026-05-07 18:13 41.10218 14.35530 15494 ft 280 kts 301°
2026-05-07 18:13 41.11507 14.33556 16218 ft 288 kts 315°
2026-05-07 18:13 41.13204 14.31952 16464 ft 313 kts 324°
2026-05-07 18:14 41.15121 14.30375 16614 ft 336 kts 325°
2026-05-07 18:14 41.17178 14.28685 16747 ft 359 kts 325°
2026-05-07 18:14 41.19358 14.26895 17013 ft 376 kts 325°
2026-05-07 18:14 41.21606 14.25045 17612 ft 383 kts 325°
2026-05-07 18:15 41.23882 14.23164 18317 ft 387 kts 325°
2026-05-07 18:15 41.26176 14.21257 18983 ft 390 kts 324°
2026-05-07 18:15 41.28479 14.19341 19724 ft 392 kts 324°
2026-05-07 18:15 41.30797 14.17412 20521 ft 393 kts 324°
2026-05-07 18:16 41.33111 14.15481 21332 ft 394 kts 324°
2026-05-07 18:16 41.35402 14.13567 22123 ft 394 kts 324°
2026-05-07 18:16 41.37732 14.11623 22891 ft 395 kts 324°
2026-05-07 18:16 41.40072 14.09667 23626 ft 396 kts 323°
2026-05-07 18:17 41.42257 14.07456 24159 ft 394 kts 314°
2026-05-07 18:17 41.44123 14.04785 24660 ft 394 kts 304°
2026-05-07 18:17 41.45617 14.01733 25171 ft 395 kts 296°
2026-05-07 18:17 41.46955 13.98516 25669 ft 398 kts 296°
2026-05-07 18:18 41.48312 13.95272 26207 ft 402 kts 296°
2026-05-07 18:18 41.49681 13.92014 26736 ft 405 kts 296°
2026-05-07 18:18 41.51068 13.88721 27256 ft 408 kts 296°
2026-05-07 18:18 41.52461 13.85407 27789 ft 411 kts 295°
2026-05-07 18:19 41.53864 13.82057 28253 ft 415 kts 295°
2026-05-07 18:19 41.55278 13.78680 28707 ft 419 kts 295°
2026-05-07 18:19 41.56684 13.75314 29124 ft 421 kts 295°
2026-05-07 18:19 41.58115 13.71884 29543 ft 425 kts 294°
2026-05-07 18:20 41.59555 13.68425 30026 ft 427 kts 294°
2026-05-07 18:20 41.60998 13.64954 30450 ft 427 kts 294°
2026-05-07 18:20 41.62436 13.61498 31007 ft 424 kts 294°
2026-05-07 18:20 41.63866 13.58069 31610 ft 420 kts 294°
2026-05-07 18:21 41.65277 13.54676 32225 ft 416 kts 294°
2026-05-07 18:21 41.66671 13.51308 32803 ft 412 kts 294°
2026-05-07 18:21 41.68050 13.47966 33385 ft 409 kts 293°
2026-05-07 18:21 41.69418 13.44647 33934 ft 406 kts 293°
2026-05-07 18:22 41.70775 13.41349 34428 ft 404 kts 293°
2026-05-07 18:22 41.71234 13.40233 34600 ft 402 kts 293°
2026-05-07 18:22 41.73041 13.35928 35292 ft 401 kts 296°
2026-05-07 18:22 41.74736 13.32950 35810 ft 406 kts 305°
2026-05-07 18:23 41.76654 13.30177 36284 ft 404 kts 305°
2026-05-07 18:23 41.78558 13.27433 36776 ft 401 kts 304°
2026-05-07 18:23 41.80448 13.24712 37241 ft 398 kts 304°
2026-05-07 18:23 41.82369 13.22038 37704 ft 400 kts 308°
2026-05-07 18:24 41.84500 13.19600 37936 ft 403 kts 310°
2026-05-07 18:24 41.88826 13.14761 37972 ft 407 kts 310°
2026-05-07 18:25 41.93215 13.09845 37973 ft 410 kts 310°
2026-05-07 18:25 41.97566 13.04953 37968 ft 411 kts 310°
2026-05-07 18:26 42.01947 13.00017 37972 ft 411 kts 310°
2026-05-07 18:26 42.06322 12.95069 37976 ft 411 kts 310°
2026-05-07 18:27 42.10694 12.90114 37967 ft 411 kts 310°
2026-05-07 18:27 42.15069 12.85156 37966 ft 411 kts 310°
2026-05-07 18:28 42.19454 12.80179 37989 ft 412 kts 310°
2026-05-07 18:28 42.23834 12.75193 38006 ft 412 kts 310°
2026-05-07 18:29 42.28213 12.70189 37992 ft 413 kts 310°
2026-05-07 18:29 42.32600 12.65170 38027 ft 413 kts 310°
2026-05-07 18:30 42.37000 12.60138 38002 ft 414 kts 311°
2026-05-07 18:30 42.41406 12.55096 37998 ft 415 kts 311°
2026-05-07 18:31 42.45808 12.50046 37992 ft 415 kts 310°
2026-05-07 18:31 42.50207 12.44979 37974 ft 415 kts 310°
2026-05-07 18:32 42.54603 12.39894 37984 ft 415 kts 310°
2026-05-07 18:32 42.58980 12.34835 38002 ft 416 kts 311°
2026-05-07 18:33 42.63382 12.29745 37998 ft 416 kts 311°
2026-05-07 18:33 42.67783 12.24638 37990 ft 416 kts 310°
2026-05-07 18:34 42.72181 12.19521 37990 ft 416 kts 311°
2026-05-07 18:34 42.76581 12.14402 37987 ft 416 kts 311°
2026-05-07 18:35 42.80976 12.09285 38005 ft 416 kts 311°
2026-05-07 18:35 42.85370 12.04141 38017 ft 416 kts 311°
2026-05-07 18:36 42.89759 11.98989 38001 ft 417 kts 311°
2026-05-07 18:36 42.94155 11.93820 37995 ft 417 kts 311°
2026-05-07 18:37 42.98556 11.88647 37995 ft 418 kts 311°
2026-05-07 18:37 43.02961 11.83469 38017 ft 418 kts 311°
2026-05-07 18:38 43.07365 11.78282 38011 ft 418 kts 311°
2026-05-07 18:38 43.11736 11.73108 38012 ft 418 kts 311°
2026-05-07 18:39 43.16133 11.67888 38009 ft 418 kts 311°
2026-05-07 18:39 43.20525 11.62671 38012 ft 418 kts 311°
2026-05-07 18:40 43.24791 11.57306 38040 ft 414 kts 308°
2026-05-07 18:40 43.28825 11.51686 38009 ft 412 kts 306°
2026-05-07 18:41 43.32814 11.46032 38005 ft 413 kts 307°
2026-05-07 18:41 43.36846 11.40402 38008 ft 413 kts 307°
2026-05-07 18:42 43.40901 11.34794 38013 ft 413 kts 307°
2026-05-07 18:42 43.44925 11.29222 38024 ft 413 kts 307°
2026-05-07 18:43 43.48977 11.23605 38034 ft 413 kts 307°
2026-05-07 18:43 43.53031 11.17954 38027 ft 414 kts 307°
2026-05-07 18:44 43.57069 11.12300 38024 ft 414 kts 307°
2026-05-07 18:44 43.61112 11.06639 38019 ft 414 kts 307°
2026-05-07 18:45 43.65158 11.00978 38015 ft 414 kts 307°
2026-05-07 18:45 43.69194 10.95305 38013 ft 414 kts 307°
2026-05-07 18:46 43.73227 10.89618 38034 ft 414 kts 307°
2026-05-07 18:46 43.77262 10.83906 38023 ft 415 kts 307°
2026-05-07 18:47 43.81303 10.78194 38030 ft 415 kts 307°
2026-05-07 18:47 43.85341 10.72485 38027 ft 415 kts 307°
2026-05-07 18:48 43.89351 10.66795 38054 ft 415 kts 307°
2026-05-07 18:48 43.93379 10.61049 38073 ft 415 kts 307°
2026-05-07 18:49 43.97404 10.55298 38094 ft 415 kts 307°
2026-05-07 18:49 44.01433 10.49541 38089 ft 416 kts 307°
2026-05-07 18:50 44.05458 10.43776 38092 ft 416 kts 307°
2026-05-07 18:50 44.09490 10.37995 38089 ft 416 kts 307°
2026-05-07 18:51 44.13514 10.32207 38087 ft 416 kts 307°
2026-05-07 18:51 44.17535 10.26411 38058 ft 416 kts 307°
2026-05-07 18:52 44.21556 10.20605 38046 ft 416 kts 307°
2026-05-07 18:52 44.25560 10.14808 38045 ft 417 kts 307°
2026-05-07 18:53 44.29579 10.08974 38033 ft 417 kts 307°
2026-05-07 18:53 44.33600 10.03126 38046 ft 417 kts 307°
2026-05-07 18:54 44.37621 9.97270 38022 ft 418 kts 307°
2026-05-07 18:54 44.41639 9.91412 38021 ft 418 kts 307°
2026-05-07 18:55 44.45659 9.85540 38022 ft 418 kts 307°
2026-05-07 18:55 44.49673 9.79660 38017 ft 418 kts 307°
2026-05-07 18:56 44.53687 9.73766 38011 ft 418 kts 307°
2026-05-07 18:56 44.57698 9.67862 38002 ft 417 kts 307°
2026-05-07 18:57 44.61702 9.61952 38009 ft 418 kts 307°
2026-05-07 18:57 44.65684 9.56067 37999 ft 418 kts 307°
2026-05-07 18:58 44.69685 9.50142 37993 ft 418 kts 307°
2026-05-07 18:58 44.73682 9.44210 37997 ft 418 kts 307°
2026-05-07 18:59 44.77708 9.38214 37994 ft 419 kts 307°
2026-05-07 18:59 44.81706 9.32254 38023 ft 419 kts 307°
2026-05-07 19:00 44.85704 9.26282 38015 ft 419 kts 307°
2026-05-07 19:00 44.89706 9.20290 38011 ft 419 kts 307°
2026-05-07 19:01 44.93681 9.14323 38022 ft 420 kts 307°
2026-05-07 19:01 44.97681 9.08307 38010 ft 420 kts 307°
2026-05-07 19:02 45.01678 9.02284 38002 ft 420 kts 307°
2026-05-07 19:02 45.05682 8.96243 38005 ft 421 kts 307°
2026-05-07 19:03 45.09690 8.90181 37992 ft 422 kts 307°
2026-05-07 19:03 45.13695 8.84101 37990 ft 422 kts 307°
2026-05-07 19:04 45.17697 8.78011 37986 ft 422 kts 307°
2026-05-07 19:04 45.21029 8.72939 38001 ft 423 kts 307°
2026-05-07 19:05 45.25682 8.65832 38030 ft 423 kts 307°
2026-05-07 19:05 45.29034 8.60693 38021 ft 423 kts 307°
2026-05-07 19:06 45.33040 8.54547 38021 ft 424 kts 307°
2026-05-07 19:06 45.39048 8.45310 38007 ft 424 kts 307°
2026-05-07 19:07 45.43062 8.39130 37993 ft 425 kts 307°
2026-05-07 19:07 45.47068 8.32942 38007 ft 425 kts 307°
2026-05-07 19:08 45.51067 8.26741 38006 ft 425 kts 307°
2026-05-07 19:08 45.55046 8.20563 38002 ft 425 kts 307°
2026-05-07 19:09 45.59045 8.14333 38004 ft 426 kts 307°
2026-05-07 19:09 45.63050 8.08082 38009 ft 427 kts 307°
2026-05-07 19:10 45.67074 8.01799 38014 ft 427 kts 307°
2026-05-07 19:10 45.71052 7.95555 38039 ft 427 kts 308°
2026-05-07 19:11 45.75056 7.89263 38039 ft 427 kts 308°
2026-05-07 19:11 45.79057 7.82971 38055 ft 427 kts 308°
2026-05-07 19:12 45.83060 7.76662 38044 ft 428 kts 308°
2026-05-07 19:12 45.87055 7.70350 38041 ft 428 kts 307°
2026-05-07 19:13 45.91051 7.64021 38041 ft 427 kts 307°
2026-05-07 19:13 45.95040 7.57685 38048 ft 427 kts 308°
2026-05-07 19:14 45.99010 7.51338 38039 ft 427 kts 307°
2026-05-07 19:14 46.02933 7.44942 38006 ft 426 kts 307°
2026-05-07 19:15 46.06847 7.38529 37997 ft 427 kts 307°
2026-05-07 19:15 46.10768 7.32110 37988 ft 426 kts 307°
2026-05-07 19:16 46.14692 7.25679 38002 ft 426 kts 307°
2026-05-07 19:16 46.18604 7.19255 37999 ft 426 kts 307°
2026-05-07 19:17 46.22519 7.12817 38002 ft 427 kts 307°
2026-05-07 19:17 46.26433 7.06355 38006 ft 427 kts 307°
2026-05-07 19:18 46.30339 6.99875 38017 ft 427 kts 307°
2026-05-07 19:18 46.34246 6.93397 38031 ft 427 kts 307°
2026-05-07 19:19 46.38149 6.86920 38042 ft 427 kts 307°
2026-05-07 19:19 46.42055 6.80435 38042 ft 427 kts 307°
2026-05-07 19:20 46.45929 6.73968 38034 ft 428 kts 307°
2026-05-07 19:20 46.49826 6.67438 38033 ft 428 kts 307°
2026-05-07 19:21 46.53719 6.60900 38034 ft 428 kts 307°
2026-05-07 19:21 46.57616 6.54343 38042 ft 428 kts 307°
2026-05-07 19:22 46.61511 6.47781 38057 ft 428 kts 307°
2026-05-07 19:22 46.65403 6.41209 38051 ft 429 kts 307°
2026-05-07 19:23 46.69285 6.34619 38049 ft 429 kts 307°
2026-05-07 19:23 46.73174 6.28015 38055 ft 429 kts 307°
2026-05-07 19:24 46.77063 6.21404 38056 ft 430 kts 307°
2026-05-07 19:24 46.80924 6.14807 38081 ft 430 kts 307°
2026-05-07 19:25 46.84804 6.08170 38074 ft 430 kts 307°
2026-05-07 19:25 46.88682 6.01516 38068 ft 430 kts 307°
2026-05-07 19:26 46.92555 5.94858 38064 ft 430 kts 307°
2026-05-07 19:26 46.96968 5.88921 38057 ft 438 kts 323°
2026-05-07 19:27 47.02356 5.84639 38050 ft 441 kts 328°
2026-05-07 19:27 47.07789 5.80466 38063 ft 441 kts 328°
2026-05-07 19:28 47.13233 5.76276 38066 ft 441 kts 328°
2026-05-07 19:28 47.18671 5.72077 38059 ft 442 kts 328°
2026-05-07 19:29 47.24114 5.67850 38056 ft 442 kts 328°
2026-05-07 19:29 47.29517 5.63646 38065 ft 442 kts 328°
2026-05-07 19:30 47.34962 5.59415 38060 ft 442 kts 328°
2026-05-07 19:30 47.40403 5.55177 38058 ft 442 kts 328°
2026-05-07 19:31 47.45841 5.50925 38063 ft 442 kts 328°
2026-05-07 19:31 47.51148 5.46392 38067 ft 437 kts 319°
2026-05-07 19:32 47.55340 5.40027 38069 ft 429 kts 303°
2026-05-07 19:32 47.58884 5.32902 38053 ft 430 kts 303°
2026-05-07 19:33 47.62430 5.25767 38065 ft 430 kts 303°
2026-05-07 19:33 47.65976 5.18609 38061 ft 430 kts 303°
2026-05-07 19:34 47.69515 5.11439 38076 ft 431 kts 303°
2026-05-07 19:34 47.73061 5.04258 38073 ft 431 kts 303°
2026-05-07 19:35 47.76603 4.97064 38075 ft 431 kts 303°
2026-05-07 19:35 47.80111 4.89889 38069 ft 432 kts 303°
2026-05-07 19:36 47.83646 4.82642 38067 ft 432 kts 303°
2026-05-07 19:36 47.87177 4.75400 38067 ft 432 kts 303°
2026-05-07 19:37 47.90709 4.68151 38065 ft 432 kts 303°
2026-05-07 19:37 47.94237 4.60891 38084 ft 432 kts 303°
2026-05-07 19:38 47.97755 4.53608 38076 ft 433 kts 302°
2026-05-07 19:38 48.01274 4.46311 38071 ft 433 kts 303°
2026-05-07 19:39 48.04768 4.39052 38066 ft 433 kts 302°
2026-05-07 19:39 48.07708 4.32918 38071 ft 433 kts 302°
2026-05-07 19:40 48.11782 4.24405 38078 ft 433 kts 302°
2026-05-07 19:40 48.15282 4.17068 38081 ft 433 kts 302°
2026-05-07 19:41 48.18777 4.09718 38075 ft 433 kts 302°
2026-05-07 19:41 48.22276 4.02351 38071 ft 433 kts 302°
2026-05-07 19:42 48.25894 3.95123 38066 ft 436 kts 310°
2026-05-07 19:42 48.30086 3.88523 38065 ft 436 kts 310°
2026-05-07 19:43 48.34274 3.81916 38068 ft 436 kts 310°
2026-05-07 19:43 48.38460 3.75302 38081 ft 437 kts 310°
2026-05-07 19:44 48.42642 3.68669 38077 ft 437 kts 310°
2026-05-07 19:44 48.46827 3.62025 38075 ft 437 kts 310°
2026-05-07 19:45 48.51008 3.55374 38071 ft 437 kts 310°
2026-05-07 19:45 48.55181 3.48710 38068 ft 437 kts 310°
2026-05-07 19:46 48.59324 3.42076 38073 ft 437 kts 310°
2026-05-07 19:46 48.63490 3.35368 38082 ft 437 kts 310°
2026-05-07 19:47 48.67654 3.28658 38072 ft 438 kts 310°
2026-05-07 19:47 48.71823 3.21935 38070 ft 438 kts 310°
2026-05-07 19:48 48.75984 3.15208 38065 ft 438 kts 310°
2026-05-07 19:48 48.80145 3.08455 38075 ft 438 kts 310°
2026-05-07 19:49 48.83645 3.02895 38075 ft 439 kts 315°
2026-05-07 19:49 48.88734 2.97681 38076 ft 444 kts 327°
2026-05-07 19:50 48.94115 2.92997 38069 ft 445 kts 327°
2026-05-07 19:50 48.99479 2.88291 38071 ft 445 kts 327°
2026-05-07 19:51 49.04837 2.83574 38088 ft 445 kts 327°
2026-05-07 19:51 49.10205 2.78850 38078 ft 445 kts 327°
2026-05-07 19:52 49.15574 2.74127 38073 ft 445 kts 327°
2026-05-07 19:52 49.20936 2.69384 38074 ft 445 kts 327°
2026-05-07 19:53 49.26262 2.64655 38091 ft 445 kts 327°
2026-05-07 19:53 49.31620 2.59888 38090 ft 445 kts 327°
2026-05-07 19:54 49.36986 2.55101 38079 ft 446 kts 327°
2026-05-07 19:54 49.42346 2.50303 38076 ft 446 kts 327°
2026-05-07 19:55 49.47698 2.45502 38072 ft 446 kts 327°
2026-05-07 19:55 49.53059 2.40702 38079 ft 446 kts 327°
2026-05-07 19:56 49.58492 2.36074 38082 ft 446 kts 328°
2026-05-07 19:56 49.63960 2.31526 38075 ft 446 kts 328°
2026-05-07 19:57 49.69422 2.26925 38074 ft 446 kts 328°
2026-05-07 19:57 49.74858 2.22292 38093 ft 446 kts 328°
2026-05-07 19:58 49.80298 2.17651 38083 ft 447 kts 328°
2026-05-07 19:58 49.85741 2.13004 38089 ft 447 kts 328°
2026-05-07 19:59 49.91143 2.08361 38081 ft 447 kts 328°
2026-05-07 19:59 49.96575 2.03682 38091 ft 447 kts 328°
2026-05-07 20:00 50.02012 1.98994 38086 ft 447 kts 328°
2026-05-07 20:00 50.07448 1.94293 38088 ft 447 kts 328°
2026-05-07 20:01 50.12880 1.89590 38087 ft 447 kts 328°
2026-05-07 20:01 50.18093 1.84386 37915 ft 442 kts 316°
2026-05-07 20:02 50.20309 1.81096 37647 ft 440 kts 313°
2026-05-07 20:02 50.22496 1.77738 37378 ft 440 kts 313°
2026-05-07 20:02 50.24681 1.74394 37113 ft 440 kts 313°
2026-05-07 20:02 50.26872 1.71053 36838 ft 440 kts 313°
2026-05-07 20:03 50.29064 1.67711 36590 ft 440 kts 313°
2026-05-07 20:03 50.31253 1.64369 36338 ft 439 kts 313°
2026-05-07 20:03 50.33443 1.61021 36025 ft 439 kts 313°
2026-05-07 20:03 50.35637 1.57657 35228 ft 444 kts 313°
2026-05-07 20:04 50.37823 1.54304 34448 ft 448 kts 313°
2026-05-07 20:04 50.40045 1.50891 33512 ft 452 kts 313°
2026-05-07 20:04 50.42298 1.47425 32570 ft 454 kts 313°
2026-05-07 20:04 50.44531 1.43982 32089 ft 446 kts 313°
2026-05-07 20:05 50.46734 1.40577 31507 ft 443 kts 313°
2026-05-07 20:05 50.48917 1.37196 30941 ft 440 kts 313°
2026-05-07 20:05 50.51064 1.33784 30358 ft 437 kts 311°
2026-05-07 20:05 50.53142 1.30316 29724 ft 435 kts 310°
2026-05-07 20:06 50.55171 1.26823 29147 ft 431 kts 309°
2026-05-07 20:06 50.57172 1.23333 28571 ft 427 kts 309°
2026-05-07 20:06 50.59177 1.19908 28008 ft 423 kts 311°
2026-05-07 20:06 50.61218 1.16594 27451 ft 420 kts 312°
2026-05-07 20:07 50.63277 1.13366 26885 ft 416 kts 313°
2026-05-07 20:07 50.65338 1.10181 26359 ft 413 kts 313°
2026-05-07 20:07 50.67385 1.07018 25804 ft 410 kts 313°
2026-05-07 20:07 50.69374 1.03917 25311 ft 407 kts 313°
2026-05-07 20:08 50.71397 1.00733 24790 ft 404 kts 312°
2026-05-07 20:08 50.73371 0.97605 24301 ft 401 kts 312°
2026-05-07 20:08 50.75327 0.94485 23818 ft 399 kts 312°
2026-05-07 20:08 50.77273 0.91376 23307 ft 397 kts 312°
2026-05-07 20:09 50.79205 0.88290 22836 ft 393 kts 312°
2026-05-07 20:09 50.81121 0.85224 22345 ft 391 kts 312°
2026-05-07 20:09 50.83021 0.82177 21887 ft 388 kts 312°
2026-05-07 20:10 50.86778 0.76148 20911 ft 385 kts 312°
2026-05-07 20:10 50.88658 0.73131 20400 ft 384 kts 312°
2026-05-07 20:10 50.90533 0.70121 19866 ft 383 kts 312°
2026-05-07 20:10 50.92401 0.67118 19313 ft 382 kts 312°
2026-05-07 20:11 50.94261 0.64119 18762 ft 381 kts 312°
2026-05-07 20:11 50.96120 0.61117 18197 ft 381 kts 312°
2026-05-07 20:11 50.97974 0.58122 17518 ft 380 kts 312°
2026-05-07 20:11 50.99821 0.55141 17029 ft 375 kts 312°
2026-05-07 20:12 51.01646 0.52188 16430 ft 373 kts 312°
2026-05-07 20:12 51.03456 0.49254 15838 ft 371 kts 312°
2026-05-07 20:12 51.05254 0.46338 15258 ft 368 kts 313°
2026-05-07 20:12 51.07043 0.43437 14680 ft 367 kts 313°
2026-05-07 20:13 51.08852 0.40592 14122 ft 365 kts 314°
2026-05-07 20:13 51.10675 0.37811 13577 ft 363 kts 315°
2026-05-07 20:13 51.12502 0.35061 13002 ft 360 kts 315°
2026-05-07 20:13 51.14310 0.32343 12618 ft 353 kts 315°
2026-05-07 20:14 51.16034 0.29739 12479 ft 339 kts 315°
2026-05-07 20:14 51.17710 0.27194 12352 ft 326 kts 314°
2026-05-07 20:14 51.19323 0.24733 12234 ft 316 kts 314°
2026-05-07 20:14 51.20886 0.22339 12100 ft 307 kts 314°
2026-05-07 20:15 51.22407 0.19998 11845 ft 303 kts 314°
2026-05-07 20:15 51.23915 0.17673 11552 ft 300 kts 314°
2026-05-07 20:15 51.25412 0.15361 11263 ft 298 kts 314°
2026-05-07 20:15 51.26899 0.13068 10964 ft 296 kts 314°
2026-05-07 20:16 51.28381 0.10790 10670 ft 294 kts 314°
2026-05-07 20:16 51.29844 0.08532 10431 ft 290 kts 314°
2026-05-07 20:16 51.31287 0.06302 10209 ft 286 kts 314°
2026-05-07 20:16 51.32709 0.04103 9978 ft 283 kts 314°
2026-05-07 20:17 51.34237 0.02204 9907 ft 277 kts 331°
2026-05-07 20:17 51.36059 0.01350 9778 ft 272 kts 355°
2026-05-07 20:17 51.37906 0.01733 9642 ft 267 kts 19°
2026-05-07 20:17 51.39470 0.03245 9505 ft 260 kts 44°
2026-05-07 20:18 51.40511 0.05555 9365 ft 256 kts 67°
2026-05-07 20:18 51.40941 0.08326 8921 ft 264 kts 90°
2026-05-07 20:18 51.40621 0.11204 8621 ft 261 kts 114°
2026-05-07 20:18 51.39686 0.13608 8490 ft 251 kts 131°
2026-05-07 20:19 51.38527 0.15669 8263 ft 247 kts 135°
2026-05-07 20:19 51.37331 0.17630 8105 ft 245 kts 136°
2026-05-07 20:19 51.36121 0.19563 8081 ft 246 kts 137°
2026-05-07 20:19 51.34786 0.21231 8080 ft 243 kts 158°
2026-05-07 20:20 51.33159 0.21817 8083 ft 241 kts 180°
2026-05-07 20:20 51.31505 0.21442 7925 ft 242 kts 200°
2026-05-07 20:20 51.30020 0.20198 7925 ft 241 kts 219°
2026-05-07 20:20 51.28903 0.18219 7926 ft 241 kts 239°
2026-05-07 20:21 51.28306 0.15775 7935 ft 241 kts 260°
2026-05-07 20:21 51.28296 0.13106 7949 ft 242 kts 281°
2026-05-07 20:21 51.28890 0.10602 7964 ft 243 kts 301°
2026-05-07 20:21 51.29945 0.08487 7980 ft 244 kts 311°
2026-05-07 20:22 51.30901 0.06279 7993 ft 242 kts 290°
2026-05-07 20:22 51.31366 0.03691 8010 ft 242 kts 282°
2026-05-07 20:22 51.31732 0.01064 8024 ft 242 kts 281°
2026-05-07 20:22 51.32087 -0.01572 8087 ft 242 kts 281°
2026-05-07 20:23 51.32432 -0.04197 7957 ft 240 kts 281°
2026-05-07 20:23 51.32770 -0.06797 7831 ft 239 kts 281°
2026-05-07 20:23 51.33107 -0.09409 7694 ft 239 kts 281°
2026-05-07 20:23 51.33442 -0.12015 7576 ft 239 kts 281°
2026-05-07 20:24 51.33775 -0.14617 7448 ft 239 kts 281°
2026-05-07 20:24 51.34112 -0.17224 7322 ft 239 kts 281°
2026-05-07 20:24 51.34450 -0.19810 7206 ft 238 kts 281°
2026-05-07 20:24 51.34789 -0.22408 7098 ft 239 kts 281°
2026-05-07 20:25 51.35125 -0.25000 7075 ft 238 kts 281°
2026-05-07 20:25 51.35456 -0.27576 7080 ft 240 kts 281°
2026-05-07 20:25 51.35790 -0.30195 7081 ft 240 kts 281°
2026-05-07 20:25 51.36122 -0.32810 7082 ft 240 kts 280°
2026-05-07 20:26 51.36289 -0.35463 7083 ft 239 kts 272°
2026-05-07 20:26 51.36348 -0.38119 7083 ft 238 kts 271°
2026-05-07 20:26 51.36394 -0.40780 7082 ft 238 kts 271°
2026-05-07 20:26 51.36437 -0.43432 7083 ft 239 kts 271°
2026-05-07 20:27 51.36479 -0.46072 7083 ft 238 kts 271°
2026-05-07 20:27 51.36523 -0.48717 7083 ft 238 kts 271°
2026-05-07 20:27 51.36567 -0.51362 7083 ft 238 kts 271°
2026-05-07 20:27 51.36610 -0.54009 7082 ft 238 kts 271°
2026-05-07 20:28 51.36651 -0.56667 7034 ft 238 kts 271°
2026-05-07 20:28 51.36692 -0.59307 6779 ft 237 kts 271°
2026-05-07 20:28 51.36731 -0.61942 6541 ft 237 kts 271°
2026-05-07 20:28 51.36768 -0.64589 6334 ft 238 kts 271°
2026-05-07 20:29 51.36805 -0.67237 6122 ft 238 kts 271°
2026-05-07 20:29 51.36840 -0.69891 5908 ft 239 kts 271°
2026-05-07 20:29 51.36877 -0.72543 5705 ft 239 kts 271°
2026-05-07 20:29 51.36913 -0.75203 5550 ft 239 kts 271°
2026-05-07 20:30 51.36949 -0.77861 5418 ft 240 kts 271°
2026-05-07 20:30 51.36986 -0.80539 5289 ft 240 kts 271°
2026-05-07 20:30 51.37032 -0.83212 5159 ft 240 kts 274°
2026-05-07 20:30 51.37535 -0.85681 5024 ft 231 kts 306°
2026-05-07 20:31 51.38730 -0.87241 4908 ft 219 kts 341°
2026-05-07 20:31 51.40182 -0.87646 4765 ft 207 kts 358°
2026-05-07 20:31 51.41585 -0.87716 4702 ft 196 kts
2026-05-07 20:31 51.42478 -0.87660 4624 ft 193 kts 13°
2026-05-07 20:32 51.43599 -0.86620 4479 ft 187 kts 51°
2026-05-07 20:32 51.44340 -0.84918 4326 ft 187 kts 59°
2026-05-07 20:32 51.45005 -0.83133 4144 ft 186 kts 61°
2026-05-07 20:32 51.45658 -0.81342 3966 ft 185 kts 61°
2026-05-07 20:33 51.46300 -0.79578 3783 ft 185 kts 61°
2026-05-07 20:33 51.46948 -0.77800 3608 ft 184 kts 61°
2026-05-07 20:33 51.47515 -0.75969 3425 ft 182 kts 76°
2026-05-07 20:33 51.47621 -0.73956 3240 ft 182 kts 90°
2026-05-07 20:34 51.47631 -0.71929 3007 ft 181 kts 90°
2026-05-07 20:34 51.47641 -0.69907 2765 ft 181 kts 90°
2026-05-07 20:34 51.47653 -0.67891 2529 ft 180 kts 91°
2026-05-07 20:34 51.47664 -0.65916 2272 ft 173 kts 91°
2026-05-07 20:35 51.47675 -0.64027 2048 ft 167 kts 91°
2026-05-07 20:35 51.47684 -0.62173 1822 ft 165 kts 91°
2026-05-07 20:35 51.47694 -0.60334 1583 ft 164 kts 91°
2026-05-07 20:35 51.47703 -0.58506 1366 ft 163 kts 91°
2026-05-07 20:36 51.47712 -0.56736 1152 ft 151 kts 91°
2026-05-07 20:36 51.47720 -0.55140 953 ft 138 kts 92°
2026-05-07 20:36 51.47727 -0.53628 762 ft 133 kts 91°
2026-05-07 20:36 51.47732 -0.52165 593 ft 130 kts 92°
2026-05-07 20:37 51.47742 -0.50724 417 ft 128 kts 90°
2026-05-07 20:37 51.47747 -0.49299 241 ft 127 kts 91°
2026-05-07 20:37 51.47754 -0.47876 94 ft 124 kts 91°
2026-05-07 20:37 51.47755 -0.46771 92 ft 60 kts 89°
2026-05-07 20:38 51.47757 -0.46329 88 ft 24 kts 89°
2026-05-07 20:38 51.47683 -0.46121 87 ft 21 kts 144°
2026-05-07 20:38 51.47617 -0.46064 87 ft 5 kts 181°
2026-05-07 20:38 51.47603 -0.46071 86 ft 1 kts 198°
2026-05-07 20:39 51.47573 -0.46083 87 ft 7 kts 191°
2026-05-07 20:39 51.47523 -0.46123 86 ft 10 kts 237°
2026-05-07 20:39 51.47516 -0.46249 86 ft 13 kts 270°
2026-05-07 20:39 51.47516 -0.46412 86 ft 16 kts 270°
2026-05-07 20:40 51.47516 -0.46605 86 ft 15 kts 269°
2026-05-07 20:40 51.47503 -0.46750 89 ft 13 kts 250°
2026-05-07 20:40 51.47493 -0.46916 86 ft 17 kts 269°
2026-05-07 20:40 51.47492 -0.47123 86 ft 20 kts 269°
2026-05-07 20:41 51.47491 -0.47363 86 ft 22 kts 269°
2026-05-07 20:41 51.47491 -0.47606 86 ft 20 kts 270°
2026-05-07 20:41 51.47490 -0.47789 86 ft 12 kts 270°
2026-05-07 20:41 51.47435 -0.47873 86 ft 13 kts 181°
2026-05-07 20:42 51.47338 -0.47872 90 ft 15 kts 179°
2026-05-07 20:42 51.47226 -0.47872 86 ft 17 kts 180°
2026-05-07 20:42 51.47127 -0.47870 86 ft 12 kts 179°
2026-05-07 20:42 51.47059 -0.47870 86 ft 8 kts 181°
2026-05-07 20:43 51.47034 -0.47943 88 ft 8 kts 271°
2026-05-07 20:43 51.47035 -0.47989 89 ft 2 kts 272°
2026-05-07 20:43 51.47036 -0.48004 88 ft 0 kts 272°